ALSAT 1 1 27559U 02054A 08281.75512341 .00000026 00000-0 13908-4 0 6682 2 27559 097.9760 158.9740 0011015 144.8462 215.3467 14.62981046312789 NIGERIASAT 1 1 27941U 03042C 08281.77259801 .00000073 00000-0 23102-4 0 7619 2 27941 097.9765 159.2831 0010799 208.3418 151.7198 14.62970575268632 UK-DMC 1 27942U 03042D 08281.80594303 -.00000053 00000-0 -13425-5 0 7509 2 27942 097.9754 159.1026 0010250 216.9309 143.1183 14.62980612268634 BILSAT 1 1 27943U 03042E 08281.76988064 .00000006 00000-0 10021-4 0 5946 2 27943 097.9751 158.9100 0010838 206.5902 153.4745 14.62883747268626 BEIJING 1 (TSINGHUA) 1 28890U 05043A 08281.75053782 -.00000001 00000-0 92266-5 0 4767 2 28890 098.0765 173.0835 0016736 057.3416 302.9397 14.60038952157071